Regional Weather Roundup
Issued by NWS Green Bay, WI

Home | Current Version | Previous Version | Text Only | Print | Product List | Glossary On
Versions: 1 2 3 4 5 6 7 8 9 10 11 12 13 14 15 16 17 18 19 20 21 22 23 24 25 26 27 28 29 30 31 32 33 34 35 36 37 38 39 40 41 42 43 44 45 46 47 48 49 50
000
ASUS43 KGRB 181600
RWRGRB

NORTH-CENTRAL AND NORTHEAST WISCONSIN REGIONAL WEATHER ROUNDUP
NATIONAL WEATHER SERVICE GREEN BAY WI
1100 AM CDT FRI AUG 18 2017

WIZ005-009-010>012-018-019-181700-
NORTH CENTRAL WISCONSIN

CITY           SKY/WX    TMP DP  RH WIND       PRES   REMARKS
IRONWOOD       CLOUDY    64  58  80 NW9       29.84R
MANITOWISH WTR NOT AVBL
ARBOR VITAE    NOT AVBL
EAGLE RIVER    NOT AVBL
LAND O LAKES   CLOUDY    63  56  79 NW12G18   29.83R
RHINELANDER    CLOUDY    63  59  87 NW8       29.84R
PHILLIPS       CLOUDY    63  58  84 NW5       29.85S
ANTIGO         NOT AVBL
TOMAHAWK       NOT AVBL
MERRILL        NOT AVBL
$$

WIZ013-073-181700-
NORTHEAST WISCONSIN

CITY           SKY/WX    TMP DP  RH WIND       PRES   REMARKS
IRON MOUNTAIN  PTSUNNY   66  54  65 NW14G23   29.76R
MARINETTE      CLOUDY    67  57  70 NW10G18   29.76R
$$

WIZ017-030-035>037-045-181700-
CENTRAL WISCONSIN

CITY           SKY/WX    TMP DP  RH WIND       PRES   REMARKS
MEDFORD        NOT AVBL
WAUSAU         CLOUDY    64  57  78 N7G17     29.83R
MOSINEE        CLOUDY    63  57  82 NW10      29.86R
MARSHFIELD     MOSUNNY   68  57  68 NW13      29.84F
WISC RAPIDS    CLOUDY    69  59  70 NW10      29.86S
STEVENS POINT  NOT AVBL
WAUPACA        NOT AVBL
SHAWANO        CLOUDY    70  59  67 NW9G18    29.80S
CLINTONVILLE   CLOUDY    68  55  64 NW12      29.82R
WAUTOMA        CLOUDY    69  59  70 NW10      29.84S
$$

WIZ038-039-048-051-181700-
FOX VALLEY

CITY           SKY/WX    TMP DP  RH WIND       PRES   REMARKS
NWS GREEN BAY  CLOUDY    69  62  78 NW13      29.79R
APPLETON       CLOUDY    66  55  68 NW12G17   29.81R
OSHKOSH        CLOUDY    68  59  73 W14       29.82R
FOND DU LAC    CLOUDY    68  57  68 W16       29.84R
$$

WIZ022-050-052-181700-
EAST CENTRAL WISCONSIN

CITY           SKY/WX    TMP DP  RH WIND       PRES   REMARKS
EPHRAIM        NOT AVBL
WASHINGTON ISL NOT AVBL
STURGEON BAY   CLOUDY    66  59  78 W14       29.77R
MANITOWOC      NOT AVBL
SHEBOYGAN      CLOUDY    69  61  75 NW10G18   29.81S
$$

LMZ563-521-522-541>543-181700-
LAKESHORE

STATION/POSITION TIME  TEMP    WIND        PRES    VSBY  WAVE
                       AIR SEA DIR/SP/G                  HT/PER
                 (UTC) (F)     (DEG/KT/KT) (MB)    (MI)  (FT/S)
SHEBOYGAN LKSHOR 1500   67     290/ 12/ 17 1008.7R
KEWAUNEE LKSHORE 1530   67     290/  7/ 11 1007.4R
NORTHPORT PIER   1540   67     310/ 12/ 16 1006.8R
N MID LAKE BUOY  1450   65 67  310/ 17/ 19 1005.2R         4/ 5
S GREEN BAY BUOY 1530   68 71  300/ 14/ 17 1007.9R
SISTER BAY LKSHO 1518   68     310/ 17/ 19   N/A
MENOMINEE LKSHOR 1530   67     280/ 12/ 16 1007.3R
$$




USA.gov is the U.S. government's official web portal to all federal, state and local government web resources and services.